This is the latest recevied weather packets stored in our database for station/object EA4EUO. If no packets are shown the sender has not sent any weather packets the latest 1 day(s).
| Time | Temp. | Humidity | Pressure | Rain* | Wind** | Luminosity | Snow |
|---|---|---|---|---|---|---|---|
| 1778338799 | 22.78° C | 86% | 1005.9 hPa | - | - | - | - |
| 1778338739 | 22.22° C | 86% | 1005.9 hPa | - | - | - | - |
| 1778338679 | 22.22° C | 88% | 1006 hPa | - | - | - | - |
| 1778338619 | 22.22° C | 85% | 1006 hPa | - | - | - | - |
| 1778338559 | 22.22° C | 86% | 1005.9 hPa | - | - | - | - |
| 1778338499 | 22.22° C | 90% | 1005.9 hPa | - | - | - | - |
| 1778338439 | 22.22° C | 84% | 1006 hPa | - | - | - | - |
| 1778338382 | 22.22° C | 79% | 1006 hPa | - | - | - | - |
| 1778337959 | 22.22° C | 84% | 1006.1 hPa | - | - | - | - |
| 1778337899 | 22.22° C | 86% | 1006.1 hPa | - | - | - | - |
| 1778337839 | 22.22° C | 86% | 1006.1 hPa | - | - | - | - |
| 1778337779 | 22.22° C | 85% | 1006 hPa | - | - | - | - |
| 1778337719 | 22.22° C | 84% | 1006.2 hPa | - | - | - | - |
| 1778337659 | 22.22° C | 81% | 1006.2 hPa | - | - | - | - |
| 1778337481 | 22.22° C | 81% | 1006.1 hPa | - | - | - | - |
| 1778337359 | 22.22° C | 78% | 1006.3 hPa | - | - | - | - |
| 1778337299 | 22.22° C | 77% | 1006.2 hPa | - | - | - | - |
| 1778337059 | 21.67° C | 79% | 1006.3 hPa | - | - | - | - |
| 1778336759 | 21.67° C | 92% | 1006.5 hPa | - | - | - | - |
| 1778336699 | 21.67° C | 92% | 1006.5 hPa | - | - | - | - |
| 1778336162 | 22.22° C | 79% | 1006.6 hPa | - | - | - | - |
| 1778335799 | 22.22° C | 76% | 1006.5 hPa | - | - | - | - |
| 1778335739 | 22.22° C | 76% | 1006.5 hPa | - | - | - | - |
| 1778335679 | 22.22° C | 82% | 1006.6 hPa | - | - | - | - |
| 1778335559 | 22.22° C | 75% | 1006.5 hPa | - | - | - | - |
* Rain since midnight (hover to see other rain measurements)
** Current wind speed in m/s (hover to see current wind gust speed)